Погода в Бауске

Погода в Бауске : погода сейчас, прогноз погоды и архив. Всё, что Вы хотите узнать о погоде в Бауске!

Поиск расширенной информации на нашем сайте:

Другие новости

Новости СМИ2

Главная страница сайта

Новости сайта

03.07.2017

Напоминаем, что на нашем специализированном сайте Метеоцентр.Азия вы можете получить высокодетализированные автоматические прогнозы погоды по пунктам России, СНГ и мира в авиационном формате (включающие направление и скорость ветра, видимость, явления погоды, количество и форму облачности, нижнюю и верхнюю границу облачности).


Погода в Бауске - сегодня

Время (UTC), дата Ветер
(°,м/с) 
Видим.   Явления Облачность Т
(°С)
Тd
(°С)
f(%) Тe
(°С)
Pmin
(гПа)
dP
(гПа)
Po
(мм)
O2
(г/м3)
Тmin Tmax R s Состояние
почвы
12 10.12.17 180 (Ю) 4-6  н/о    н/о 
+0.8 -0.9 88 -2  999.5  -0.8  747  300           
15 10.12.17 190 (Ю) 4-6  н/о    н/о 
+0.6 -1.4 86 -2  999.9  0.4  747  301           
18 10.12.17 170 (Ю) 4-5  н/о    н/о 
-0.4 -2 89 -3  999.3  -0.6  747  301           
21 10.12.17 150 (ЮВ) 4-6  н/о    н/о 
-0.2 -1.6 90 -3  999.4  0.1  747  301           
00 11.12.17 130 (ЮВ) 4-6  н/о    н/о 
-1.7 -2.6 94 -4  998.4  -1.1  746  303           
03 11.12.17 110 (В) 4-6  н/о    н/о 
-2 -3.4 90 -5  997.3  -1.1  745  303           
06 11.12.17 120 (ЮВ) 7-10  н/о    н/о 
-1.4 -3.4 86 -6  996.9  -0.3  745  302           
09 11.12.17 120 (ЮВ) 7-10  н/о    н/о 
-0.8 -3.1 84 -5  997.4  0.5  745  301           
12 11.12.17 120 (ЮВ) 7-9  н/о    н/о 
-0.6 -3 84 -5  996.5  -0.9  745  301           
15 11.12.17 130 (ЮВ) 7-9  н/о    н/о 
-0.1 -2.2 86 -4  997.6  745  301           
18 11.12.17 130 (ЮВ) 6-8  н/о    н/о 
+0.4 -1 90 -3  999.1  1.5  746  300           
21 11.12.17 140 (ЮВ) 6-8  н/о    н/о 
+0.9 -0.4 91 -2  999  746  300           
00 12.12.17 130 (ЮВ) 7-10  н/о    н/о 
+1 -0.2 92 -3  997.8  -1.2  746  299           
03 12.12.17 130 (ЮВ) 7-9  н/о    н/о 
+1.6 +0 89 -2  995.4  -2.3  744  298           
06 12.12.17 140 (ЮВ) 8-11  н/о    н/о 
+2 +0.6 90 -2  994  -1.4  743  297           
12 12.12.17 170 (Ю) 5-7  н/о    н/о 
+4.1 +2.5 89 +2  991.7  -1.4  741  294           
15 12.12.17 190 (Ю) 7-9  н/о    н/о 
+5.1 +3.6 90 +2  993  1.4  742  293           
18 12.12.17 190 (Ю) 6-7  н/о    н/о 
+5 +3.2 88 +2  994.4  1.4  743  294           
21 12.12.17 220 (ЮЗ) 10-15  н/о    н/о 
+5.3 +0.7 72 +2  996  1.4  744  294           
00 13.12.17 220 (ЮЗ) 10-14  н/о    н/о 
+4.1 +0 75 997.4  1.4  745  296           
03 13.12.17 250 (З) 7-10  н/о    н/о 
+2.8 +0.7 86 -1  1001.7  4.2  748  298           
06 13.12.17 240 (ЮЗ) 4-5  н/о    н/о 
+0.9 -0.8 88 -1  1005.7  751  302           
09 13.12.17 220 (ЮЗ) 5-6  н/о    н/о 
+1.4 -1.4 82 -1  1007.9  2.2  753  302           
12 13.12.17 220 (ЮЗ) 6-10  н/о    н/о 
+1.6 +0.3 91 -2  1008.1  753  302           
15 13.12.17 210 (ЮЗ) 5-7  н/о    н/о 
+1.6 +0 89 -1  1008.8  0.7  754  302           
Время (UTC), дата Ветер
(°,м/с) 
Видим.   Явления Облачность Т
(°С)
Тd
(°С)
f(%) Тe
(°С)
Pmin
(гПа)
dP
(гПа)
Po
(мм)
O2
(г/м3)
Тmin Tmax R s Состояние
почвы

Для получения пояснительной информации подведите курсор к названию столбца.

ПОГОДА в Бауске - архив

Всё, что Вы хотите узнать о погоде в Бауске - удобно и подробно!

Выберите нужную дату (начиная с 1 января 2015* года) и нажмите кнопку "Найти".
Будут отображены архивные сводки погоды по пункту Бауска, начиная с указанной даты.


Отображать данные в формате CSV (для использования в таблицах Excel)


Внимание! Наш архив погоды предназначен исключительно для личного некоммерческого использования в познавательных целях. Если Вам необходимы официальные справки о состоянии погоды (для производственных, юридических, коммерческих и т.п. целей), обращайтесь в органы Росгидромета.

*Примечание: данная дата относится к архиву по метеостанциям СССР (Россия, СНГ, Балтия).
Архив по метеостанциям Зарубежной Европы и Азии (кроме Китая) хранится 10 дней, по другим регионам земного шара (Китай, Африка, Америка, Австралия, Океания) - 1 день.

Бауска - район местоположения метеостанции


Название, широта, долгота, высота метеостанции:
Бауска 56.4°ш. 24.2°д. 33 м над ур. моря [Латвия]

Дополнительная информация

В oтличие oт бoльшинства пoгoдных сайтoв мы публикуем пoдрoбную метеoинфoрмацию в детальнoм прoфессиoнальнoм фoрмате.

Характеристики температуры и влажнoсти вoздуха измеряются на высoте 2 м в тени вдали oт зданий и деревьев.
Скoрoсть ветра измеряется на высoте 10 м (на урoвне рoста челoвека скoрoсть ветра ниже в 1.5-2 раза). Если метеoстанция нахoдится в гoрoде или в лесу, тo скoрoсть ветра занижена на 2-4 м/с пo сравнению с oткрытым местoм. Скoрoсть ветра над акватoриями крупных рек и oзёр, а также на вершинах хoлмoв на 2-5 м/с выше, чем в oбычных услoвиях.
Атмoсфернoе давление в разных тoчках местнoсти мoжет значительнo oтличаться oт давления на метеoстанции, в зависимoсти oт услoвий рельефа (при пoдъёме на 10 м давление пoнижается примернo на 1 мм рт.ст.).